Location: Chevoux
(46.3801°N, 4.9476°E)
Time: 16:37:23
(UTC+00:00)

Cosmos 405 - Pass Details

Date: 28 January 2021
Orbit: 448 x 462 km, 81.3° (Epoch: 28 February)

Event Time Altitude Azimuth Distance (km) Brightness Sun altitude
Rises 18:17:19 0° 343° (NNW) 2,502 6.8 -17.0°
Reaches altitude 10° 18:19:27 10° 337° (NNW) 1,620 5.9 -17.4°
Maximum altitude 18:22:51 45° 264° (W) 636 4.1 -17.9°
Drops below altitude 10° 18:26:12 10° 190° (S) 1,598 5.9 -18.5°
Sets 18:28:18 0° 184° (S) 2,464 6.8 -18.9°
